| time (UTC) | temp F | wind direction | speed MPH | gust MPH | rain 1hr in | rain 24hr in | rain mn in | humidity % | barometer mb |
| 20260901190017 | 74 | 331 | 2.0 | 4.0 | 0.00 | 0.00 | 0.00 | 79 | 1019.8 |
| 20260901185015 | 75 | 187 | 1.0 | 4.0 | 0.00 | 0.00 | 0.00 | 78 | 1019.9 |
| 20260901183014 | 76 | 186 | 2.0 | 5.0 | 0.00 | 0.00 | 0.00 | 77 | 1019.7 |
| 20260901182014 | 77 | 186 | 2.0 | 4.0 | 0.00 | 0.00 | 0.00 | 76 | 1019.9 |
| 20260901181015 | 77 | 187 | 1.0 | 4.0 | 0.00 | 0.00 | 0.00 | 76 | 1019.8 |
| 20260901180017 | 78 | 187 | 1.0 | 4.0 | 0.00 | 0.00 | 0.00 | 75 | 1019.8 |
| 20260901175014 | 78 | 186 | 1.0 | 5.0 | 0.00 | 0.00 | 0.00 | 74 | 1019.8 |
| 20260901174017 | 79 | 187 | 1.0 | 4.0 | 0.00 | 0.00 | 0.00 | 74 | 1019.8 |
| 20260901173014 | 79 | 187 | 1.0 | 4.0 | 0.00 | 0.00 | 0.00 | 74 | 1019.9 |
| 20260901172016 | 78 | 186 | 2.0 | 4.0 | 0.00 | 0.00 | 0.00 | 76 | 1019.8 |
| 20260901171014 | 77 | 186 | 2.0 | 6.0 | 0.00 | 0.00 | 0.00 | 76 | 1020.0 |
| 20260901170011 | 77 | 208 | 3.0 | 7.0 | 0.00 | 0.00 | 0.00 | 76 | 1020.3 |
| 20260901165013 | 77 | 195 | 4.0 | 8.0 | 0.00 | 0.00 | 0.00 | 75 | 1020.2 |
| 20260901162015 | 77 | 193 | 5.0 | 11.0 | 0.00 | 0.00 | 0.00 | 76 | 1020.7 |
| 20260901160015 | 77 | 181 | 6.0 | 12.0 | 0.00 | 0.00 | 0.00 | 75 | 1020.5 |
| 20260901154014 | 77 | 183 | 7.0 | 14.0 | 0.00 | 0.00 | 0.00 | 75 | 1020.7 |
| 20260901153014 | 78 | 193 | 7.0 | 13.0 | 0.00 | 0.00 | 0.00 | 75 | 1020.8 |
| 20260901152014 | 78 | 194 | 7.0 | 13.0 | 0.00 | 0.00 | 0.00 | 74 | 1020.9 |
| 20260901151014 | 78 | 183 | 7.0 | 13.0 | 0.00 | 0.00 | 0.00 | 73 | 1020.7 |
| 20260901150015 | 78 | 171 | 7.0 | 13.0 | 0.00 | 0.00 | 0.00 | 73 | 1020.8 |
| 20260901145014 | 78 | 170 | 7.0 | 13.0 | 0.00 | 0.00 | 0.00 | 74 | 1020.6 |
| 20260901144014 | 78 | 182 | 7.0 | 13.0 | 0.00 | 0.00 | 0.00 | 75 | 1020.9 |
| 20260901143013 | 78 | 197 | 7.0 | 13.0 | 0.00 | 0.00 | 0.00 | 75 | 1021.1 |
| 20260901141012 | 78 | 203 | 4.0 | 8.0 | 0.00 | 0.00 | 0.00 | 75 | 1021.0 |
| 20260901140014 | 78 | 199 | 7.0 | 14.0 | 0.00 | 0.00 | 0.00 | 76 | 1021.4 |
| 20260901135014 | 78 | 199 | 7.0 | 13.0 | 0.00 | 0.00 | 0.00 | 76 | 1021.3 |
| 20260901134016 | 78 | 200 | 4.0 | 12.0 | 0.00 | 0.00 | 0.00 | 76 | 1021.1 |
| 20260901133013 | 78 | 181 | 7.0 | 13.0 | 0.00 | 0.00 | 0.00 | 75 | 1021.4 |
| 20260901132013 | 78 | 193 | 7.0 | 13.0 | 0.00 | 0.00 | 0.00 | 75 | 1021.7 |
| 20260901125012 | 78 | 179 | 9.0 | 15.0 | 0.00 | 0.00 | 0.00 | 74 | 1021.4 |
| 20260901124014 | 78 | 189 | 8.0 | 14.0 | 0.00 | 0.00 | 0.00 | 74 | 1021.8 |
| 20260901123014 | 78 | 197 | 8.0 | 13.0 | 0.00 | 0.00 | 0.00 | 74 | 1021.7 |
| 20260901122020 | 78 | 191 | 7.0 | 13.0 | 0.00 | 0.00 | 0.00 | 73 | 1021.9 |
| 20260901121018 | 79 | 170 | 6.0 | 14.0 | 0.00 | 0.00 | 0.00 | 73 | 1021.9 |
| 20260901120014 | 79 | 185 | 6.0 | 12.0 | 0.00 | 0.00 | 0.00 | 73 | 1022.0 |
| 20260901114014 | 79 | 189 | 8.0 | 13.0 | 0.00 | 0.00 | 0.00 | 72 | 1022.0 |
| 20260901113014 | 79 | 189 | 9.0 | 19.0 | 0.00 | 0.00 | 0.00 | 72 | 1022.1 |
| 20260901112014 | 79 | 177 | 11.0 | 18.0 | 0.00 | 0.00 | 0.00 | 71 | 1022.4 |
| 20260901111012 | 80 | 188 | 10.0 | 17.0 | 0.00 | 0.00 | 0.00 | 71 | 1022.3 |
| 20260901110017 | 79 | 183 | 9.0 | 16.0 | 0.00 | 0.00 | 0.00 | 72 | 1022.3 |
| 20260901105016 | 78 | 176 | 9.0 | 18.0 | 0.00 | 0.00 | 0.00 | 73 | 1022.4 |
| 20260901103012 | 78 | 191 | 8.0 | 15.0 | 0.00 | 0.00 | 0.00 | 74 | 1022.6 |
| 20260901102013 | 78 | 176 | 7.0 | 12.0 | 0.00 | 0.00 | 0.00 | 74 | 1022.7 |
| 20260901101018 | 78 | 163 | 9.0 | 16.0 | 0.00 | 0.00 | 0.00 | 74 | 1022.6 |
| 20260901100016 | 78 | 173 | 9.0 | 16.0 | 0.00 | 0.00 | 0.00 | 74 | 1022.6 |
| 20260901095013 | 79 | 179 | 7.0 | 14.0 | 0.00 | 0.00 | 0.00 | 73 | 1022.6 |
| 20260901094014 | 78 | 177 | 6.0 | 12.0 | 0.00 | 0.00 | 0.00 | 72 | 1022.6 |
| 20260901093013 | 77 | 190 | 7.0 | 14.0 | 0.00 | 0.00 | 0.00 | 74 | 1022.5 |
| 20260901092013 | 78 | 200 | 7.0 | 15.0 | 0.00 | 0.00 | 0.00 | 73 | 1022.4 |
| 20260901090014 | 78 | 198 | 4.0 | 11.0 | 0.00 | 0.00 | 0.00 | 72 | 1022.3 |
| 20260901083013 | 77 | 160 | 5.0 | 10.0 | 0.00 | 0.00 | 0.00 | 72 | 1021.9 |
| 20260901082012 | 77 | 177 | 3.0 | 8.0 | 0.00 | 0.00 | 0.00 | 72 | 1021.6 |
| 20260901081014 | 78 | 142 | 3.0 | 9.0 | 0.00 | 0.00 | 0.00 | 71 | 1021.5 |
| 20260901080021 | 78 | 147 | 4.0 | 9.0 | 0.00 | 0.00 | 0.00 | 72 | 1021.5 |
| 20260901075012 | 78 | 110 | 3.0 | 7.0 | 0.00 | 0.00 | 0.00 | 72 | 1021.5 |
| 20260901074015 | 77 | 120 | 3.0 | 8.0 | 0.00 | 0.00 | 0.00 | 72 | 1021.4 |
| 20260901073016 | 77 | 115 | 3.0 | 7.0 | 0.00 | 0.00 | 0.00 | 72 | 1021.3 |
| 20260901072018 | 76 | 67 | 2.0 | 7.0 | 0.00 | 0.00 | 0.00 | 72 | 1021.2 |
| 20260901071012 | 76 | 69 | 2.0 | 6.0 | 0.00 | 0.00 | 0.00 | 74 | 1021.2 |
| 20260901070016 | 76 | 64 | 2.0 | 4.0 | 0.00 | 0.00 | 0.00 | 74 | 1021.2 |
| 20260901065013 | 75 | 63 | 3.0 | 5.0 | 0.00 | 0.00 | 0.00 | 74 | 1021.1 |
| 20260901064015 | 75 | 39 | 2.0 | 4.0 | 0.00 | 0.00 | 0.00 | 76 | 1021.1 |
| 20260901063013 | 74 | 48 | 3.0 | 7.0 | 0.00 | 0.00 | 0.00 | 77 | 1021.1 |
| 20260901062012 | 73 | 30 | 3.0 | 5.0 | 0.00 | 0.00 | 0.00 | 78 | 1021.1 |
| 20260901061014 | 73 | 43 | 3.0 | 7.0 | 0.00 | 0.00 | 0.00 | 79 | 1021.0 |
| 20260901055013 | 72 | 38 | 2.0 | 5.0 | 0.00 | 0.00 | 0.00 | 80 | 1021.1 |
| 20260901054013 | 72 | 37 | 2.0 | 4.0 | 0.00 | 0.00 | 0.00 | 81 | 1021.4 |
| 20260901053013 | 72 | 28 | 2.0 | 4.0 | 0.00 | 0.00 | 0.00 | 81 | 1021.1 |
| 20260901052016 | 72 | 27 | 2.0 | 5.0 | 0.00 | 0.00 | 0.00 | 81 | 1021.1 |
| 20260901050016 | 72 | 50 | 3.0 | 5.0 | 0.00 | 0.00 | 0.00 | 81 | 1021.1 |
| 20260901045013 | 73 | 54 | 3.0 | 5.0 | 0.00 | 0.00 | 0.00 | 80 | 1021.0 |
| 20260901044015 | 73 | 50 | 3.0 | 5.0 | 0.00 | 0.00 | 0.00 | 80 | 1021.0 |
| 20260901043014 | 73 | 60 | 2.0 | 5.0 | 0.00 | 0.00 | 0.00 | 80 | 1021.0 |
| 20260901041012 | 74 | 66 | 3.0 | 5.0 | 0.00 | 0.00 | 0.00 | 80 | 1021.2 |
| 20260901035014 | 74 | 73 | 2.0 | 4.0 | 0.00 | 0.00 | 0.00 | 79 | 1021.1 |
| 20260901033014 | 74 | 80 | 2.0 | 4.0 | 0.00 | 0.00 | 0.00 | 80 | 1021.3 |
| 20260901032014 | 74 | 57 | 3.0 | 7.0 | 0.00 | 0.00 | 0.00 | 80 | 1021.3 |
| 20260901031012 | 74 | 74 | 2.0 | 4.0 | 0.00 | 0.00 | 0.00 | 80 | 1021.3 |
| 20260901030014 | 74 | 114 | 1.0 | 3.0 | 0.00 | 0.00 | 0.00 | 80 | 1021.5 |
| 20260901025014 | 74 | 114 | 1.0 | 4.0 | 0.00 | 0.00 | 0.00 | 80 | 1021.4 |
| 20260901024015 | 74 | 114 | 1.0 | 3.0 | 0.00 | 0.00 | 0.00 | 80 | 1021.6 |
| 20260901023012 | 74 | 114 | 1.0 | 4.0 | 0.00 | 0.00 | 0.00 | 80 | 1021.6 |
| 20260901022012 | 74 | 114 | 1.0 | 3.0 | 0.00 | 0.00 | 0.00 | 80 | 1021.6 |
| 20260901021013 | 74 | 118 | 1.0 | 3.0 | 0.00 | 0.00 | 0.00 | 80 | 1021.7 |
| 20260901020016 | 74 | 129 | 1.0 | 3.0 | 0.00 | 0.00 | 0.00 | 80 | 1021.7 |
| 20260901015013 | 74 | 123 | 2.0 | 6.0 | 0.00 | 0.00 | 0.00 | 80 | 1021.9 |
| 20260901014013 | 75 | 124 | 1.0 | 4.0 | 0.00 | 0.00 | 0.00 | 80 | 1021.9 |
| 20260901013014 | 75 | 125 | 2.0 | 5.0 | 0.00 | 0.00 | 0.00 | 80 | 1021.8 |
| 20260901012013 | 75 | 117 | 1.0 | 4.0 | 0.00 | 0.00 | 0.00 | 80 | 1021.9 |
| 20260901011012 | 75 | 116 | 1.0 | 6.0 | 0.00 | 0.00 | 0.00 | 81 | 1021.9 |
| 20260901010015 | 75 | 109 | 2.0 | 7.0 | 0.00 | 0.00 | 0.00 | 81 | 1021.9 |
| 20260901005013 | 74 | 105 | 1.0 | 3.0 | 0.00 | 0.00 | 0.00 | 81 | 1022.0 |
| 20260901004017 | 74 | 105 | 1.0 | 3.0 | 0.00 | 0.00 | 0.00 | 81 | 1022.2 |
| 20260901002012 | 74 | 105 | 1.0 | 3.0 | 0.00 | 0.00 | 0.00 | 81 | 1022.2 |
| 20260901001014 | 74 | 105 | 1.0 | 4.0 | 0.00 | 0.00 | 0.00 | 81 | 1022.1 |
| 20260901000021 | 74 | 105 | 1.0 | 3.0 | 0.00 | 0.00 | 0.00 | 81 | 1022.2 |
| 20260831235016 | 75 | 105 | 0.0 | 3.0 | 0.00 | 0.00 | 0.00 | 82 | 1022.2 |
| 20260831234017 | 75 | 105 | 0.0 | 2.0 | 0.00 | 0.00 | 0.00 | 82 | 1022.3 |
| 20260831233017 | 74 | 104 | 0.0 | 2.0 | 0.00 | 0.00 | 0.00 | 82 | 1022.2 |
| 20260831232023 | 74 | 104 | 2.0 | 4.0 | 0.00 | 0.00 | 0.00 | 82 | 1022.2 |
| 20260831231015 | 74 | 115 | 1.0 | 4.0 | 0.00 | 0.00 | 0.00 | 82 | 1022.3 |
| 20260831230018 | 74 | 123 | 0.0 | 1.0 | 0.00 | 0.00 | 0.00 | 82 | 1022.2 |
| 20260831225016 | 74 | 122 | 0.0 | 2.0 | 0.00 | 0.00 | 0.00 | 82 | 1022.1 |
| 20260831224020 | 74 | 123 | 1.0 | 3.0 | 0.00 | 0.00 | 0.00 | 82 | 1022.1 |
| 20260831223016 | 74 | 122 | 1.0 | 6.0 | 0.00 | 0.00 | 0.00 | 82 | 1022.0 |
| 20260831221024 | 75 | 91 | 2.0 | 5.0 | 0.00 | 0.00 | 0.00 | 82 | 1021.8 |
| 20260831220018 | 75 | 91 | 1.0 | 4.0 | 0.00 | 0.00 | 0.00 | 82 | 1021.8 |
| 20260831215019 | 75 | 91 | 2.0 | 4.0 | 0.00 | 0.00 | 0.00 | 82 | 1021.8 |
| 20260831214015 | 75 | 92 | 1.0 | 4.0 | 0.00 | 0.00 | 0.00 | 82 | 1021.7 |
| 20260831213019 | 75 | 92 | 2.0 | 3.0 | 0.00 | 0.00 | 0.00 | 82 | 1021.6 |
| 20260831212018 | 75 | 92 | 2.0 | 5.0 | 0.00 | 0.00 | 0.00 | 82 | 1021.4 |
| 20260831211018 | 75 | 92 | 2.0 | 4.0 | 0.00 | 0.00 | 0.00 | 82 | 1021.4 |
| 20260831210016 | 75 | 92 | 2.0 | 4.0 | 0.00 | 0.00 | 0.00 | 82 | 1021.3 |
| 20260831205016 | 75 | 92 | 2.0 | 4.0 | 0.00 | 0.00 | 0.00 | 82 | 1021.3 |
| 20260831204021 | 75 | 86 | 2.0 | 4.0 | 0.00 | 0.00 | 0.00 | 81 | 1021.2 |
| 20260831203016 | 76 | 90 | 2.0 | 4.0 | 0.00 | 0.00 | 0.00 | 81 | 1021.2 |
| 20260831202018 | 76 | 103 | 1.0 | 4.0 | 0.00 | 0.00 | 0.00 | 81 | 1021.2 |
| 20260831194016 | 76 | 125 | 0.0 | 2.0 | 0.00 | 0.00 | 0.00 | 81 | 1020.8 |
| 20260831193018 | 76 | 125 | 0.0 | 1.0 | 0.00 | 0.00 | 0.00 | 81 | 1020.6 |
| 20260831192017 | 76 | 125 | 0.0 | 2.0 | 0.00 | 0.00 | 0.00 | 80 | 1020.5 |
| 20260831191021 | 76 | 125 | 0.0 | 2.0 | 0.00 | 0.00 | 0.00 | 80 | 1020.3 |